Regional Weather Roundup
Issued by NWS Newport/Morehead, NC

Home | Current Version | Previous Version | Text Only | Print | Product List | Glossary On
Versions: 1 2 3 4 5 6 7 8 9 10 11 12 13 14 15 16 17 18 19 20 21 22 23 24 25 26 27 28 29 30 31 32 33 34 35 36 37 38 39 40 41 42 43 44 45 46 47 48 49 50
000
ASUS42 KMHX 140625
RWRMHX
WEATHER ROUNDUP FOR EASTERN NORTH CAROLINA
NATIONAL WEATHER SERVICE NEWPORT/MOREHEAD CITY NC
100 AM EST THU DEC 14 2017

NOTE: "FAIR" INDICATES FEW OR NO CLOUDS BELOW 12,000 FEET
WITH NO SIGNIFICANT WEATHER AND/OR OBSTRUCTIONS TO VISIBILITY

NCZ015>017-031-032-045>047-102-103-140700-
NORTH COAST

CITY           SKY/WX    TMP DP  RH WIND       PRES   REMARKS
EDENTON        CLOUDY    42  25  51 SW10G16   29.76F
ELIZABETH CITY MOCLDY    42  25  50 S17G23    29.75F
KITTY HAWK     CLOUDY    40  27  59 SW6       29.77S
MANTEO         CLOUDY    40  28  62 SW8       29.79S

$$

NCZ045>047-081-094-103-104-140700-
CENTRAL COAST

CITY           SKY/WX    TMP DP  RH WIND       PRES   REMARKS
FRISCO         MOCLDY    53  41  63 SW21G31   29.78F

$$

NCZ095-097-098-100-101-140700-
SOUTHERN COAST

CITY           SKY/WX    TMP DP  RH WIND       PRES   REMARKS
BEAUFORT       PTCLDY    48  40  73 W16G31    29.81S
CEDAR ISLAND   NOT AVBL
JACKSONVILLE   CLOUDY    44  28  53 SW9       29.81F
PINEY ISLAND     N/A    N/A N/A N/A W7        29.80S
WILMINGTON     CLEAR     43  30  60 SW10      29.83F


$$

NCZ011>013-027>030-043-044-078>080-089-090>093-098-140700-
COASTAL PLAIN

CITY           SKY/WX    TMP DP  RH WIND       PRES   REMARKS
AHOSKIE        CLEAR     36  19  50 S6        29.71F
CLINTON        CLEAR     39  25  57 SW3       29.79F
ELIZABETHTOWN  NOT AVBL
GOLDSBORO      CLEAR     40  20  46 SW12      29.75F
GREENVILLE     CLEAR     39  21  48 SW10      29.78F
HAVELOCK       CLOUDY    44  34  67 SW16      29.82S
KENANSVILLE    CLEAR     37  23  56 SW5       29.78F
KINSTON        NOT AVBL
NEW BERN       CLOUDY    39  27  62 SW10      29.81F
RICHLANDS      CLOUDY    38  26  62 S9        29.81F
ROCKY MOUNT    CLEAR     39  22  50 S13G18    29.73F
WASHINGTON     PTCLDY    40  20  44 SW7G16    29.76F
WHITEVILLE     CLEAR     40  26  56 SW8       29.81F

$$

AMZ130-135-150-152-154-156-158-170-250-252-270-ANZ085-086-088-633-658-670-140700-
MARINE OBSERVATIONS

STATION/POSITION TIME  TEMP    WIND        PRES    WAVE   SWELL
                       AIR SEA DIR/SP/G            HT/PER HT/PER
                 (UTC) (F)     (DEG/KT/KT) (MB)    (FT/S) (FT/S)
CHESAPEAKE LIGHT NOT AVBL
64 E VA BEACH    0550   49 59  230/ 25/ 31 1007.0    5/ 5   2/11
DUCK             0600   43 53  210/ 14/ 19 1007.2
2 E DUCK         0530      55                N/A
OREGON INLET     0600   43 42  230/ 11/ 13 1008.5
13E OREGON INLT  0548      57                N/A     3/ 7   2/ 7
HATTERAS CG      0600   48 50  250/ 11/ 16 1008.2
DIAMOND BUOY     0600   58 74  230/ 25/ 33 1008.3
CAPE LOOKOUT     0600          250/ 25/ 27 1009.1
BEAUFORT LAB     0600   48 50  270/  5/ 13 1009.2
30 SE NEW RVR IN 0508   56 62  240/ 19/ 27 1009.8
30 SE NEW RVR IN 0530      62                N/A     6/ 6
27 SE WRIGHTSVLE NOT AVBL
5 SE WRIGHTSVLE  0608   52 57  250/ 17/ 25 1009.5
225 S CAPE HAT   0550   65 74  240/ 19/ 23 1012.0    7/10   5/10
41 SE CHARLESTON 0600      73  250/ 25/ 31 1011.8

$$



USA.gov is the U.S. government's official web portal to all federal, state and local government web resources and services.